User: anonymous   Login
Location: Goheenville
(40.9070°N, 79.3720°W)
Time: 12:34:09
(UTC-04:00)
Language:

Cosmos 1633 - Orbit

View from above orbital plane
View from above orbital plane
View from above satellite
View from above satellite

Ground track
Ground track

The orbit data is extracted from the following two-line orbital elements,

1 15592U 85020A   15245.85408619 +.00002899 +00000-0 +11586-3 0  9997
2 15592 082.5365 252.3425 0013960 327.8727 098.6038 15.24633207664318
Epoch (UTC): 02 September 2015 20:29:53
Eccentricity: 0.0013960
inclination: 82.5365°
perigee height: 482 km
apogee height: 501 km
right ascension of ascending node: 252.3425°
argument of perigee: 327.8727°
revolutions per day: 15.24633207
mean anomaly at epoch: 98.6038°
orbit number at epoch: 66431

The dashed part of the orbit path shows where the satellite is in the earth's shadow,  

DLR